COSMOS 1275 DEB, 12731

Orbit data source: Space-Track

COSMOS 1275 DEB, 12731 is space debris in LEO originally from a launch on Thu, 04 Jun 1981 UTC launched from the Plesetsk Missile And Space Complex (PKMTR). Debris objects in space refer to the collection of defunct objects orbiting the Earth. Examples of debris include non-operational satellites, rocket bodies, and fragments generated from explosions, collisions, or faulty payload assembly.

Loading next visibility...
Identifier
12731, 1981-053BY
Orbit
LEO
Country
Flag of CISCIS
Related business
Manufacturer
Unknown
Mission
Spacecraft
Bus & Motor
Unknown
Mass
Unknown
Launch date (UTC)
1981-06-04 (45 years ago)
Launch vehicle
Unknown
Launch site
Plesetsk Missile And Space Complex (PKMTR)
Object type
Payload
Rocket body
Debris
Shape & HBR
Unknown shape, 0.1 m
Radar Cross Section
Small (<0.1 m²)

Expand to show TLE details & history
Last TLE update: 18 hours ago

TLE from 18 hours ago
0 COSMOS 1275 DEB
1 12731U 81053BY  26119.35644271  .00000368  00000-0  33515-3 0  9999
2 12731  82.9341 264.1601 0080962 333.3266  54.2268 13.79437270244352
Epoch: 2026-04-29T08:33Z
TLE epoch observation values (Epoch: 2026-04-29T08:33:16.650Z)
Latitude
28.11889°
Longitude
-77.69987°
Altitude
934.897 km
Speed
7.404 km/s
True Right ascension
17h 51m 45s
True Declination
27° 58' 47"
Sunlit
Object was in daylight at epoch
Visualization orbit readout
Latitude
Unknown
Longitude
Unknown
Altitude
Unknown
Speed
Unknown
Apparent Right ascension
Unknown
Apparent Declination
Unknown
Sunlit
N/A
Visualization observer readout
Local Sidereal Time
10:29:27
Azimuth
Unknown
Elevation
Unknown
Doppler factor
Unknown
Orbital elements
Apogee altitude
1,022.462 km
Perigee altitude
903.591 km
Semi-major axis
7,341.163 km
Eccentricity
0.0081
Inclination
82.9341°
RAAN
264.1601°
Arg. of periapsis
333.3266°
True anomaly
54.98398°
Mean anomaly
54.2268°
Eccentric anomaly
54.60494°
Mean motion
3.45061 °/min
Orbital period
104.33 mins
BSTAR
0.00033515
Loading maneuver chart data...
Computing Atmospheric mass density...
Loading historical data...
Loading historical data...
Loading historical data...
Loading historical data...
Loading historical data...
Loading historical data...
Loading historical data...

Documentation

Showing up to 5 results
|